www.pogodaiklimat.ru

Погода и климат >> Архив погоды >> Казахстан >> Астана


АРХИВ ПОГОДЫ в Астане

Время (UTC), дата Ветер
(напр.,м/с)
 
Видим.   Явления Облачность Т
(С)
Тd
(С)
f
(%)
Тe
(С)
Тes
(С)
Комфортность P
(гПа)
Po
(гПа)
Тmin
(С)
Tmax
(С)
R
(мм)
R24
(мм)
S
(см)
09 18.09 СЗ 3 10 км 8/6 1500 м
[Sc diur, vesp Ac und]
+19.7 +7.1 44 +21 +22 комфорт 1013.5 973.3
12 18.09 СЗ 2 10 км 6/4 1500 м
[Sc Ci fib]
+18.6 +3.2 36 +19 +20 тепло 1014.8 974.4
15 18.09 З 1 н/о ясно +14.4 +3.8 49 +15 +15 тепло 1016.6 975.6 +22.6
18 18.09 ЮЗ 1 н/о ясно +11.3 +3.3 58 +11 +11 тепло 1017.8 976.3 +22.6
21 18.09 З 2 н/о ясно +10.2 +3.2 62 +9 +9 по сезону 1018.4 976.7
00 19.09 штиль 0 н/о 1/0
[Ac trans]
+7.1 +2.6 73 +6 +6 по сезону 1019.9 977.7
03 19.09 С 2 10 км 3/0
[Ci fib]
+9.1 +3.3 67 +8 +9 по сезону 1021.7 979.7
06 19.09 СЗ 3 10 км 4/0
[Ci fib]
+15.7 +1.8 39 +15 +21 тепло 1022.2 981.1 +6.1
09 19.09 З 3 10 км 8/0
[Ci fib]
+17.4 +0.1 31 +17 +22 тепло 1022.4 981.5
12 19.09 СЗ 2 10 км ясно +17.4 +0.1 31 +18 +19 тепло 1022.7 981.8
15 19.09 З 1 н/о ясно +12.7 +0.4 43 +13 +13 по сезону 1024.8 983.2 +18.3
18 19.09 З 1 н/о ясно +9.5 -0.4 50 +9 +9 по сезону 1025.9 983.8 +18.3
21 19.09 штиль 0 н/о ясно +5.9 -0.2 65 +5 +5 по сезону 1026.8 984.1
00 20.09 Ю 2 н/о 3/0
[Ac trans]
+6.2 +0.5 67 +4 +4 по сезону 1026.3 983.7
03 20.09 Ю 1 10 км 4/0
[Ac trans Ci fib]
+10.4 +2.5 58 +10 +12 по сезону 1025.7 983.7
06 20.09 ЮЗ 4 10 км 4/0
[Ac lent]
+18.7 +4.5 39 +19 +22 тепло 1023.2 982.5 +5.1
09 20.09 З 5 10 км 3/0
[Ci fib]
+24.5 +6.3 31 +24 +28 комфорт 1020.4 980.6
12 20.09 З 4 10 км 4/0
[Ci fib]
+25.5 +5.7 28 +25 +26 комфорт 1018.8 979.2
15 20.09 ЮЗ 1 н/о ясно +19.6 +6.0 41 +21 +21 комфорт 1019.6 979.2 +26.2
18 20.09 ЮЗ 1 н/о ясно +17.0 +6.2 49 +18 +18 тепло 1018.4 977.7 +26.2
21 20.09 штиль 0 н/о ясно +14.1 +6.2 59 +14 +14 тепло 1017.5 976.4
00 21.09 ЮЗ 1 н/о ясно +13.0 +6.1 63 +13 +13 тепло 1016.5 975.3
03 21.09 ЮЗ 1 10 км 3/0
[Ac cast]
+15.3 +6.3 55 +16 +17 тепло 1015.7 974.9
06 21.09 З 4 10 км 8/4 1000 м
[Sc Ac As]
+22.5 +5.9 34 +23 +25 комфорт 1013.6 973.8 +12.7
09 21.09 З 3 10 км 8/3 1000 м
[Sc Ac cast Cc]
+21.8 +6.1 36 +22 +25 комфорт 1012.9 973.0
12 21.09 С 3 10 км 9/0
[Ac und Ci fib]
+21.7 +5.6 35 +22 +23 комфорт 1013.2 973.3
15 21.09 СВ 2 н/о 8/0
[Ac trans]
+16.8 +3.8 42 +17 +17 тепло 1014.9 974.3 +24.0
18 21.09 СВ 1 н/о 6/0
[Ac trans]
+13.5 +5.2 57 +14 +14 тепло 1016.3 975.2 +24.0
21 21.09 СВ 3 н/о 3/0
[As op]
+11.3 +6.6 73 +10 +10 тепло 1017.6 976.1
00 22.09 СВ 4 н/о 10/8
[Sc Ci fib]
+9.1 +6.9 86 +6 +6 по сезону 1018.7 976.9
03 22.09 СВ 4 10 км 10/10 800 м
[Sc]
+8.1 +4.1 76 +5 +5 прохладно 1020.0 977.9
06 22.09 СВ 4 10 км 10/10 630 м
[Sc]
+7.9 +2.8 70 +5 +5 холодно 1020.7 978.6 +7.8
09 22.09 СВ 3 10 км 10/10 1230 м
[Sc]
+9.7 +1.4 56 +8 +8 прохладно 1020.0 978.1
12 22.09 С 3 10 км 9/9 1500 м
[Sc]
+10.4 -0.1 48 +9 +9 холодно 1020.0 978.2
15 22.09 С 3 н/о 9/9 1500 м
[Sc]
+8.2 -1.6 50 +6 +6 прохладно 1021.5 979.3 +11.2
18 22.09 С 1 н/о 8/8 1500 м
[Sc]
+5.2 -1.7 61 +4 +4 прохладно 1022.3 979.7 +11.2
21 22.09 С 3 н/о 10/10 870 м
[Sc]
+4.9 +1.9 81 +1 +1 прохладно 1022.1 979.5
00 23.09 С 5 н/о 10/10 600 м
[Sc]
+2.0 -0.9 81 -3 -3 холодно 1024.4 981.2
03 23.09 С 4 10 км 10/10 630 м
[Sc]
+0.4 -5.0 67 -5 -5 очень
холодно
1026.6 983.0
06 23.09 С 4 4000 м снежные зёрна 10/10 600 м
[Cb cap]
+1.0 -6.3 58 -4 -4 очень
холодно
1027.7 984.2 0.0
09 23.09 С 4 10 км {снег} 10/10 1000 м
[Cb cap]
+2.8 -6.3 51 -1 -1 очень
холодно
1028.7 985.4
12 23.09 СВ 4 10 км {снег} 10/10 1110 м
[Sc]
+2.1 -6.7 52 -2 -2 очень
холодно
1030.3 986.8
15 23.09 СВ 2 н/о 10/10 1170 м
[Sc]
+1.6 -6.2 56 -1 -1 очень
холодно
1031.8 988.2 +3.1
18 23.09 СЗ 2 н/о 10/10 1300 м
[Sc]
+1.2 -7.3 53 -2 -2 очень
холодно
1032.4 988.7 +3.1 0.0
21 23.09 С 1 н/о 10/10 1170 м
[Sc]
+0.7 -8.0 52 -1 -1 холодно 1033.1 989.3
00 24.09 С 1 н/о 10/10 1140 м
[Sc]
+0.5 -8.2 52 -1 -1 прохладно 1033.8 989.9
03 24.09 СВ 2 10 км 10/10 1110 м
[Sc]
+0.8 -8.2 51 -2 -2 очень
холодно
1034.8 990.9
06 24.09 СВ 2 10 км 10/8 1170 м
[Sc Ac As Ci]
+3.3 -7.8 44 +1 +2 очень
холодно
1035.1 991.6 +0.4
09 24.09 СЗ 1 10 км 4/4 1000 м
[Sc]
+5.9 -8.0 36 +6 +10 холодно 1034.2 991.1
12 24.09 штиль 0 10 км ясно +6.1 -7.9 36 +6 +7 холодно 1034.4 991.4
15 24.09 штиль 0 н/о ясно +2.7 -8.0 45 +2 +2 очень
холодно
1035.6 992.0 +7.2
18 24.09 штиль 0 н/о ясно +1.5 -7.5 51 +1 +1 холодно 1035.5 991.7 +7.2
21 24.09 штиль 0 н/о ясно -0.4 -7.0 61 -1 -1 холодно 1035.4 991.3
00 25.09 штиль 0 н/о ясно -2.2 -6.9 70 -3 -3 холодно 1035.6 991.2
03 25.09 В 1 10 км ясно +0.2 -6.2 62 -1 0 очень
холодно
1035.2 991.2

 

Местоположение метеостанции Астана (город Астана, Казахстан): широта 51.13 долгота 71.37 высота над уровнем моря 350 м.

В архиве по умолчанию представлена погода в Астане за последнюю неделю. Архивные данные за месяц целиком и за предыдущие месяцы, начиная с января 2011 года, Вы можете получить, выбрав интересующий диапазон дат из раскрывающегося списка и нажав кнопку "Ввод!".

Внимание! Время в таблицах - всемирное. Для получения местного времени необходимо прибавить поправку, которая в Астане равна 6 ч.

Смотрите также архив погоды в соседних городах и на ближайших метеорологических станциях:

Погода в Астане 2 (город Астана, Казахстан) (4 км)
Погода в Арнасае (Акмолинская область, Казахстан) (51 км)
Погода в Шортанды (Акмолинская область, Казахстан) (65 км)
Погода в Аршалы (Акмолинская область, Казахстан) (73 км)
Погода в Новомарковке (Акмолинская область, Казахстан) (92 км)
Погода в Киевке (Карагандинская область, Казахстан) (99 км)
Погода в Акколе (Акмолинская область, Казахстан) (101 км)
Погода в Осакаровке (Карагандинская область, Казахстан) (105 км)
Погода в Кургальджин (Акмолинская область, Казахстан) (114 км)
Погода в Жалтыре (Акмолинская область, Казахстан) (122 км)

Пояснения к столбцам:

Ветер - указаны скорость ветра в м/с - средняя за 10 мин, порывы в срок и между сроками (в фигурных скобках) и направление, откуда дует ветер: С - северный, СВ - северо-восточный, В - восточный, ЮВ - юго-восточный, Ю - южный, ЮЗ - юго-западный, З - западный, СЗ - северо-западный.
Видимость - горизонтальная дальность видимости в метрах или километрах. При видимости от 1 до 10 км при отсутствии осадков обычно наблюдается дымка, при ухудшении видимости до 1 км и менее - туман. В сухую погоду видимость может ухудшаться дымом, пылью или мглою.
Явления - указаны атмосферные явления, наблюдавшиеся в срок или в последний час перед сроком; фигурными скобками обозначены явления, наблюдавшиеся между сроками (за 1-3 часа до срока); квадратными скобками обозначены град или гололедные отложения с указанием их диаметра в мм.
Облачность - указаны через наклонную черту общая и нижняя облачность в баллах и высота нижней границы облаков в метрах; квадратными скобками обозначены формы облаков: Ci - перистые, Cs - перисто-слоистые, Cc - перисто-кучевые, Ac - высококучевые, As - высокослоистые, Sc - слоисто-кучевые, Ns - слоисто-дождевые, Cu - кучевые, Cb - кучево-дождевые. Подробнее классификацию облаков см. в Атласе облаков (PDF).
T - Температура воздуха - температура, измеренная на высоте 2 м над землей.
Td - Температура точки росы - температура, при понижении до которой содержащийся в воздухе водяной пар достигнет насыщения.
f - Относительная влажность воздуха - влажноcть воздуха, измеренная на высоте 2 м над землей.
Te - Эффективная температура - температура, которую ощущает одетый по сезону человек в тени. Характеристика душности погоды. При расчете учитывается влияние влажности воздуха и скорости ветра на теплоощущения человека.
Tes - Эффективная температура на солнце - температура, которую ощущает человек, с поправкой на солнечный нагрев. Характеристика знойности погоды. Зависит от высоты солнца над горизонтом, облачности и скорости ветра. Ночью, в пасмурную погоду, а также при ветре 12 м/с и более поправка равна нулю.
P - Атмосферное давление - приведенное к уровню моря атмосферное давление.
Po - Атмосферное давление - измеренное на уровне метеостанции атмосферное давление.
Tmin - Минимальная температура - минимум температуры воздуха на высоте 2 м над землей.
Tmax - Максимальная температура - максимум температуры воздуха на высоте 2 м над землей.
R - Количество осадков - Количество выпавших осадков за период времени, мм. При наведении курсора мыши на число - период времени, за который выпало указанное количество осадков.
R24 - Количество осадков - Количество выпавших осадков за 24 часа, мм.
S - Снежный покров - Высота снежного покрова, см. При наведении курсора мыши на число - состояние снежного покрова и степень покрытия местности в баллах.